Location: Brantley
(31.5822°N, 86.2569°W)
Time: 16:57:14
(UTC+00:00)

Transit 2A Rocket - Pass Details

Date: 16 February 2026
Orbit: 583 x 900 km, 66.7° (Epoch: 12 March)

Event Time Altitude Azimuth Distance (km) Brightness Sun altitude
Rises 21:44:19 0° 211° (SSW) 3,419 9.4 20.6°
Reaches altitude 10° 21:46:46 10° 214° (SSW) 2,514 9.0 20.2°
Maximum altitude 21:52:38 68° 297° (WNW) 959 6.1 19.1°
Drops below altitude 10° 21:58:39 10° 20° (NNE) 2,573 7.4 18.0°
Sets 22:01:11 0° 23° (NNE) 3,505 8.0 17.5°
